Newton, KS

12:42 PM CST on November 14, 2019 (GMT -0600)
Newton City County

Weather History for KEWK - July, 2019

Change the Weather History Date:

Saturday, July 20, 2019

  Actual Average Record
Temperature  
Mean Temperature 88 °F -  
Max Temperature 100 °F 89 °F 105 °F (2006)
Min Temperature 77 °F 67 °F 64 °F (1997)
Cooling Degree Days 24    
Growing Degree Days 38 (Base 50)    
Moisture  
Dew Point 69 °F    
Average Humidity 55    
Maximum Humidity 76    
Minimum Humidity 36    
Precipitation  
Precipitation 0.00 in - - ()
Sea Level Pressure  
Sea Level Pressure 29.77 in    
Wind  
Wind Speed 19 mph (South)    
Max Wind Speed 29 mph    
Max Gust Speed 32 mph    
Visibility 10 miles    
Events      
Averages and records for this station are not official NWS values.
T = Trace of Precipitation, MM = Missing Value Source: NWS Daily Summary

Daily Weather History Graph

Daily Weather History Graph

Search for Another Location

Airport or City:

Astronomy

Jul. 20, 2019 Rise Set
Actual Time 6:22 AM CDT 8:48 PM CDT
Civil Twilight 5:51 AM CDT 9:18 PM CDT
Nautical Twilight 5:14 AM CDT 9:56 PM CDT
Astronomical Twilight 4:32 AM CDT 10:37 PM CDT
Moon 11:19 PM CDT (7/20) 9:44 AM CDT (7/20)
Length of Visible Light 15h 26m
Length of Day
14h 26m
Waning Gibbous, 87% of the Moon is Illuminated
Jul 20
Waning Gibbous
Jul 24
Last Quarter
Jul 31
New
Aug 7
First Quarter
Aug 15
Full

Hourly Weather History & Observations

Time (CDT) Temp. Heat Index Dew Point Humidity Pressure Visibility Wind Dir Wind Speed Gust Speed Precip Events Conditions
12:56 AM 82.0 °F 84.5 °F 66.9 °F 60% 29.78 in 10.0 mi South 15.0 mph - N/A   Unknown
1:56 AM 81.0 °F 82.7 °F 64.9 °F 58% 29.79 in 10.0 mi South 16.1 mph 25.3 mph N/A   Unknown
2:56 AM 80.1 °F 82.7 °F 68.0 °F 67% 29.78 in 10.0 mi South 19.6 mph - N/A   Unknown
3:56 AM 80.1 °F 82.7 °F 68.0 °F 67% 29.77 in 10.0 mi South 20.7 mph 26.5 mph N/A   Unknown
4:56 AM 79.0 °F - 68.0 °F 69% 29.77 in 10.0 mi South 20.7 mph 25.3 mph N/A   Unknown
5:35 AM 78.8 °F - 68.0 °F 69% 29.84 in 10.0 mi South 16.1 mph - N/A   Partly Cloudy
5:56 AM 77.0 °F - 68.0 °F 74% 29.77 in 10.0 mi South 17.3 mph 23.0 mph N/A   Unknown
6:56 AM 77.0 °F - 69.1 °F 76% 29.78 in 10.0 mi South 18.4 mph 25.3 mph N/A   Unknown
7:56 AM 79.0 °F - 69.1 °F 72% 29.78 in 10.0 mi South 21.9 mph 27.6 mph N/A   Unknown
8:56 AM 82.9 °F 87.0 °F 70.0 °F 65% 29.78 in 10.0 mi South 20.7 mph 27.6 mph N/A   Unknown
9:56 AM 86.0 °F 90.1 °F 69.1 °F 57% 29.77 in 10.0 mi South 25.3 mph 28.8 mph N/A   Unknown
10:56 AM 89.1 °F 93.7 °F 69.1 °F 52% 29.77 in 10.0 mi SSW 23.0 mph 29.9 mph N/A   Clear
11:56 AM 93.0 °F 99.0 °F 70.0 °F 47% 29.77 in 10.0 mi South 21.9 mph 27.6 mph N/A   Clear
12:56 PM 96.1 °F 102.9 °F 70.0 °F 43% 29.77 in 10.0 mi South 19.6 mph 25.3 mph N/A   Clear
1:56 PM 97.0 °F 103.5 °F 70.0 °F 41% - 10.0 mi North - - N/A   Clear
2:56 PM 98.1 °F 107.2 °F 72.0 °F 43% 29.74 in 10.0 mi South 23.0 mph 28.8 mph N/A   Unknown
3:56 PM 100.0 °F 108.6 °F 71.1 °F 39% 29.73 in 10.0 mi South 25.3 mph 31.1 mph N/A   Partly Cloudy
4:56 PM 99.0 °F 105.5 °F 69.1 °F 38% 29.73 in 10.0 mi South 28.8 mph 32.2 mph N/A   Clear
5:10 PM 98.6 °F 105.5 °F 69.8 °F 39% 29.80 in 10.0 mi South 23.0 mph 31.1 mph N/A   Partly Cloudy
5:56 PM 99.0 °F 104.2 °F 68.0 °F 36% 29.73 in 10.0 mi South 23.0 mph 28.8 mph N/A   Clear
6:56 PM 96.1 °F 101.0 °F 68.0 °F 40% 29.74 in 10.0 mi South 17.3 mph 24.2 mph N/A   Clear
7:56 PM 93.0 °F 97.4 °F 68.0 °F 44% 29.75 in 10.0 mi South 15.0 mph - N/A   Partly Cloudy
8:56 PM 88.0 °F 92.1 °F 69.1 °F 53% 29.76 in 10.0 mi South 12.7 mph - N/A   Unknown
9:07 PM 87.8 °F 92.6 °F 69.8 °F 55% 29.83 in 10.0 mi South 11.5 mph - N/A   Partly Cloudy
9:56 PM 86.0 °F 90.1 °F 69.1 °F 57% 29.79 in 10.0 mi SSE 10.4 mph - N/A   Partly Cloudy
10:56 PM 84.0 °F 87.0 °F 68.0 °F 58% 29.82 in 10.0 mi South 12.7 mph - N/A   Unknown
11:56 PM 84.0 °F 87.0 °F 68.0 °F 58% 29.81 in 10.0 mi South 16.1 mph - N/A   Clear